Year,Month,Day,Hour,Minute,Value (Times are PST for temperature in C)
2012,06,24,00,00,8.80
2012,06,24,00,01,8.80
2012,06,24,00,02,8.80
2012,06,24,00,03,8.80
2012,06,24,00,04,8.80
2012,06,24,00,05,8.80
2012,06,24,00,06,8.80
2012,06,24,00,07,8.80
2012,06,24,00,08,8.80
2012,06,24,00,09,8.80
2012,06,24,00,10,8.80
2012,06,24,00,11,8.80
2012,06,24,00,12,8.80
2012,06,24,00,13,8.80
2012,06,24,00,14,8.80
2012,06,24,00,15,8.80
2012,06,24,00,16,8.80
2012,06,24,00,17,8.70
2012,06,24,00,18,8.70
2012,06,24,00,19,8.70
2012,06,24,00,20,8.70
2012,06,24,00,21,8.70
2012,06,24,00,22,8.70
2012,06,24,00,23,8.70
2012,06,24,00,24,8.70
2012,06,24,00,25,8.70
2012,06,24,00,26,8.70
2012,06,24,00,27,8.70
2012,06,24,00,28,8.70
2012,06,24,00,29,8.70
2012,06,24,00,30,8.70
2012,06,24,00,31,8.70
2012,06,24,00,32,8.70
2012,06,24,00,33,8.60
2012,06,24,00,34,8.60
2012,06,24,00,35,8.60
2012,06,24,00,36,8.60
2012,06,24,00,37,8.60
2012,06,24,00,38,8.60
2012,06,24,00,39,8.60
2012,06,24,00,40,8.60
2012,06,24,00,41,8.60
2012,06,24,00,42,8.60
2012,06,24,00,43,8.60
2012,06,24,00,44,8.60
2012,06,24,00,45,8.60
2012,06,24,00,46,8.60
2012,06,24,00,47,8.60
2012,06,24,00,48,8.60
2012,06,24,00,49,8.60
2012,06,24,00,50,8.60
2012,06,24,00,51,8.60
2012,06,24,00,52,8.60
2012,06,24,00,53,8.60
2012,06,24,00,54,8.60
2012,06,24,00,55,8.60
2012,06,24,00,56,8.60
2012,06,24,00,57,8.60
2012,06,24,00,58,8.60
2012,06,24,00,59,8.60
2012,06,24,01,00,8.60
2012,06,24,01,01,8.60
2012,06,24,01,02,8.60
2012,06,24,01,03,8.60
2012,06,24,01,04,8.60
2012,06,24,01,05,8.50
2012,06,24,01,06,8.50
2012,06,24,01,07,8.50
2012,06,24,01,08,8.50
2012,06,24,01,09,8.50
2012,06,24,01,10,8.50
2012,06,24,01,11,8.50
2012,06,24,01,12,8.50
2012,06,24,01,13,8.50
2012,06,24,01,14,8.50
2012,06,24,01,15,8.50
2012,06,24,01,16,8.50
2012,06,24,01,17,8.50
2012,06,24,01,18,8.50
2012,06,24,01,19,8.50
2012,06,24,01,20,8.50
2012,06,24,01,21,8.50
2012,06,24,01,22,8.50
2012,06,24,01,23,8.40
2012,06,24,01,24,8.40
2012,06,24,01,25,8.40
2012,06,24,01,26,8.40
2012,06,24,01,27,8.40
2012,06,24,01,28,8.40
2012,06,24,01,29,8.30
2012,06,24,01,30,8.30
2012,06,24,01,31,8.30
2012,06,24,01,32,8.30
2012,06,24,01,33,8.30
2012,06,24,01,34,8.20
2012,06,24,01,35,8.20
2012,06,24,01,36,8.20
2012,06,24,01,37,8.20
2012,06,24,01,38,8.20
2012,06,24,01,39,8.20
2012,06,24,01,40,8.20
2012,06,24,01,41,8.20
2012,06,24,01,42,8.20
2012,06,24,01,43,8.20
2012,06,24,01,44,8.20
2012,06,24,01,45,8.20
2012,06,24,01,46,8.20
2012,06,24,01,47,8.20
2012,06,24,01,48,8.20
2012,06,24,01,49,8.20
2012,06,24,01,50,8.20
2012,06,24,01,51,8.20
2012,06,24,01,52,8.10
2012,06,24,01,53,8.10
2012,06,24,01,54,8.10
2012,06,24,01,55,8.10
2012,06,24,01,56,8.10
2012,06,24,01,57,8.10
2012,06,24,01,58,8.00
2012,06,24,01,59,8.00
2012,06,24,02,00,8.00
2012,06,24,02,01,8.00
2012,06,24,02,02,7.90
2012,06,24,02,03,7.90
2012,06,24,02,04,7.90
2012,06,24,02,05,7.90
2012,06,24,02,06,7.90
2012,06,24,02,07,7.80
2012,06,24,02,08,7.80
2012,06,24,02,09,7.80
2012,06,24,02,10,7.80
2012,06,24,02,11,7.80
2012,06,24,02,12,7.80
2012,06,24,02,13,7.80
2012,06,24,02,14,7.70
2012,06,24,02,15,7.70
2012,06,24,02,16,7.70
2012,06,24,02,17,7.70
2012,06,24,02,18,7.70
2012,06,24,02,19,7.70
2012,06,24,02,20,7.70
2012,06,24,02,21,7.70
2012,06,24,02,22,7.70
2012,06,24,02,23,7.70
2012,06,24,02,24,7.60
2012,06,24,02,25,7.60
2012,06,24,02,26,7.60
2012,06,24,02,27,7.60
2012,06,24,02,28,7.60
2012,06,24,02,29,7.60
2012,06,24,02,30,7.60
2012,06,24,02,31,7.60
2012,06,24,02,32,7.60
2012,06,24,02,33,7.60
2012,06,24,02,34,7.60
2012,06,24,02,35,7.60
2012,06,24,02,36,7.60
2012,06,24,02,37,7.60
2012,06,24,02,38,7.60
2012,06,24,02,39,7.60
2012,06,24,02,40,7.60
2012,06,24,02,41,7.60
2012,06,24,02,42,7.60
2012,06,24,02,43,7.60
2012,06,24,02,44,7.60
2012,06,24,02,45,7.50
2012,06,24,02,46,7.50
2012,06,24,02,47,7.50
2012,06,24,02,48,7.50
2012,06,24,02,49,7.50
2012,06,24,02,50,7.50
2012,06,24,02,51,7.50
2012,06,24,02,52,7.50
2012,06,24,02,53,7.50
2012,06,24,02,54,7.50
2012,06,24,02,55,7.50
2012,06,24,02,56,7.50
2012,06,24,02,57,7.50
2012,06,24,02,58,7.50
2012,06,24,02,59,7.50
2012,06,24,03,00,7.50
2012,06,24,03,01,7.50
2012,06,24,03,02,7.50
2012,06,24,03,03,7.60
2012,06,24,03,04,7.60
2012,06,24,03,05,7.60
2012,06,24,03,06,7.60
2012,06,24,03,07,7.60
2012,06,24,03,08,7.70
2012,06,24,03,09,7.70
2012,06,24,03,10,7.70
2012,06,24,03,11,7.70
2012,06,24,03,12,7.70
2012,06,24,03,13,7.70
2012,06,24,03,14,7.70
2012,06,24,03,15,7.80
2012,06,24,03,16,7.80
2012,06,24,03,17,7.80
2012,06,24,03,18,7.80
2012,06,24,03,19,7.80
2012,06,24,03,20,7.80
2012,06,24,03,21,7.80
2012,06,24,03,22,7.80
2012,06,24,03,23,7.80
2012,06,24,03,24,7.80
2012,06,24,03,25,7.80
2012,06,24,03,26,7.70
2012,06,24,03,27,7.70
2012,06,24,03,28,7.70
2012,06,24,03,29,7.70
2012,06,24,03,30,7.80
2012,06,24,03,31,7.80
2012,06,24,03,32,7.80
2012,06,24,03,33,7.80
2012,06,24,03,34,7.80
2012,06,24,03,35,7.80
2012,06,24,03,36,7.80
2012,06,24,03,37,7.80
2012,06,24,03,38,7.80
2012,06,24,03,39,7.80
2012,06,24,03,40,7.80
2012,06,24,03,41,7.90
2012,06,24,03,42,7.90
2012,06,24,03,43,7.90
2012,06,24,03,44,7.90
2012,06,24,03,45,7.90
2012,06,24,03,46,8.00
2012,06,24,03,47,8.00
2012,06,24,03,48,8.00
2012,06,24,03,49,8.00
2012,06,24,03,50,8.00
2012,06,24,03,51,8.00
2012,06,24,03,52,8.00
2012,06,24,03,53,8.00
2012,06,24,03,54,8.00
2012,06,24,03,55,8.00
2012,06,24,03,56,8.00
2012,06,24,03,57,8.00
2012,06,24,03,58,8.00
2012,06,24,03,59,8.00
2012,06,24,04,00,8.00
2012,06,24,04,01,8.00
2012,06,24,04,02,8.00
2012,06,24,04,03,8.00
2012,06,24,04,04,8.00
2012,06,24,04,05,8.00
2012,06,24,04,06,8.00
2012,06,24,04,07,8.00
2012,06,24,04,08,8.00
2012,06,24,04,09,8.00
2012,06,24,04,10,8.00
2012,06,24,04,11,8.00
2012,06,24,04,12,8.10
2012,06,24,04,13,8.10
2012,06,24,04,14,8.10
2012,06,24,04,15,8.10
2012,06,24,04,16,8.10
2012,06,24,04,17,8.10
2012,06,24,04,18,8.10
2012,06,24,04,19,8.10
2012,06,24,04,20,8.10
2012,06,24,04,21,8.10
2012,06,24,04,22,8.20
2012,06,24,04,23,8.20
2012,06,24,04,24,8.20
2012,06,24,04,25,8.20
2012,06,24,04,26,8.20
2012,06,24,04,27,8.20
2012,06,24,04,28,8.20
2012,06,24,04,29,8.20
2012,06,24,04,30,8.20
2012,06,24,04,31,8.20
2012,06,24,04,32,8.20
2012,06,24,04,33,8.20
2012,06,24,04,34,8.20
2012,06,24,04,35,8.20
2012,06,24,04,36,8.20
2012,06,24,04,37,8.20
2012,06,24,04,38,8.30
2012,06,24,04,39,8.30
2012,06,24,04,40,8.30
2012,06,24,04,41,8.30
2012,06,24,04,42,8.30
2012,06,24,04,43,8.30
2012,06,24,04,44,8.30
2012,06,24,04,45,8.30
2012,06,24,04,46,8.30
2012,06,24,04,47,8.30
2012,06,24,04,48,8.30
2012,06,24,04,49,8.30
2012,06,24,04,50,8.30
2012,06,24,04,51,8.30
2012,06,24,04,52,8.30
2012,06,24,04,53,8.30
2012,06,24,04,54,8.30
2012,06,24,04,55,8.30
2012,06,24,04,56,8.30
2012,06,24,04,57,8.30
2012,06,24,04,58,8.30
2012,06,24,04,59,8.30
2012,06,24,05,00,8.30
2012,06,24,05,01,8.30
2012,06,24,05,02,8.30
2012,06,24,05,03,8.30
2012,06,24,05,04,8.30
2012,06,24,05,05,8.30
2012,06,24,05,06,8.30
2012,06,24,05,07,8.30
2012,06,24,05,08,8.30
2012,06,24,05,09,8.30
2012,06,24,05,10,8.30
2012,06,24,05,11,8.20
2012,06,24,05,12,8.20
2012,06,24,05,13,8.20
2012,06,24,05,14,8.20
2012,06,24,05,15,8.20
2012,06,24,05,16,8.20
2012,06,24,05,17,8.20
2012,06,24,05,18,8.20
2012,06,24,05,19,8.20
2012,06,24,05,20,8.20
2012,06,24,05,21,8.20
2012,06,24,05,22,8.20
2012,06,24,05,23,8.20
2012,06,24,05,24,8.20
2012,06,24,05,25,8.20
2012,06,24,05,26,8.20
2012,06,24,05,27,8.20
2012,06,24,05,28,8.20
2012,06,24,05,29,8.20
2012,06,24,05,30,8.20
2012,06,24,05,31,8.20
2012,06,24,05,32,8.20
2012,06,24,05,33,8.20
2012,06,24,05,34,8.20
2012,06,24,05,35,8.20
2012,06,24,05,36,8.20
2012,06,24,05,37,8.20
2012,06,24,05,38,8.20
2012,06,24,05,39,8.20
2012,06,24,05,40,8.20
2012,06,24,05,41,8.20
2012,06,24,05,42,8.10
2012,06,24,05,43,8.10
2012,06,24,05,44,8.10
2012,06,24,05,45,8.10
2012,06,24,05,46,8.10
2012,06,24,05,47,8.10
2012,06,24,05,48,8.10
2012,06,24,05,49,8.10
2012,06,24,05,50,8.10
2012,06,24,05,51,8.10
2012,06,24,05,52,8.10
2012,06,24,05,53,8.10
2012,06,24,05,54,8.10
2012,06,24,05,55,8.20
2012,06,24,05,56,8.20
2012,06,24,05,57,8.20
2012,06,24,05,58,8.20
2012,06,24,05,59,8.20
2012,06,24,06,00,8.20
2012,06,24,06,01,8.20
2012,06,24,06,02,8.20
2012,06,24,06,03,8.20
2012,06,24,06,04,8.10
2012,06,24,06,05,8.10
2012,06,24,06,06,8.10
2012,06,24,06,07,8.10
2012,06,24,06,08,8.20
2012,06,24,06,09,8.20
2012,06,24,06,10,8.20
2012,06,24,06,11,8.20
2012,06,24,06,12,8.20
2012,06,24,06,13,8.20
2012,06,24,06,14,8.20
2012,06,24,06,15,8.20
2012,06,24,06,16,8.20
2012,06,24,06,17,8.20
2012,06,24,06,18,8.20
2012,06,24,06,19,8.20
2012,06,24,06,20,8.30
2012,06,24,06,21,8.30
2012,06,24,06,22,8.30
2012,06,24,06,23,8.30
2012,06,24,06,24,8.30
2012,06,24,06,25,8.30
2012,06,24,06,26,8.40
2012,06,24,06,27,8.40
2012,06,24,06,28,8.40
2012,06,24,06,29,8.40
2012,06,24,06,30,8.40
2012,06,24,06,31,8.40
2012,06,24,06,32,8.40
2012,06,24,06,33,8.40
2012,06,24,06,34,8.40
2012,06,24,06,35,8.40
2012,06,24,06,36,8.40
2012,06,24,06,37,8.40
2012,06,24,06,38,8.40
2012,06,24,06,39,8.40
2012,06,24,06,40,8.50
2012,06,24,06,41,8.50
2012,06,24,06,42,8.50
2012,06,24,06,43,8.50
2012,06,24,06,44,8.50
2012,06,24,06,45,8.50
2012,06,24,06,46,8.50
2012,06,24,06,47,8.50
2012,06,24,06,48,8.50
2012,06,24,06,49,8.50
2012,06,24,06,50,8.60
2012,06,24,06,51,8.60
2012,06,24,06,52,8.60
2012,06,24,06,53,8.60
2012,06,24,06,54,8.60
2012,06,24,06,55,8.70
2012,06,24,06,56,8.70
2012,06,24,06,57,8.70
2012,06,24,06,58,8.70
2012,06,24,06,59,8.70
2012,06,24,07,00,8.70
2012,06,24,07,01,8.80
2012,06,24,07,02,8.80
2012,06,24,07,03,8.90
2012,06,24,07,04,8.90
2012,06,24,07,05,9.00
2012,06,24,07,06,9.00
2012,06,24,07,07,9.10
2012,06,24,07,08,9.10
2012,06,24,07,09,9.20
2012,06,24,07,10,9.20
2012,06,24,07,11,9.30
2012,06,24,07,12,9.30
2012,06,24,07,13,9.40
2012,06,24,07,14,9.50
2012,06,24,07,15,9.50
2012,06,24,07,16,9.60
2012,06,24,07,17,9.70
2012,06,24,07,18,9.70
2012,06,24,07,19,9.70
2012,06,24,07,20,9.70
2012,06,24,07,21,9.70
2012,06,24,07,22,9.70
2012,06,24,07,23,9.80
2012,06,24,07,24,9.80
2012,06,24,07,25,9.90
2012,06,24,07,26,9.90
2012,06,24,07,27,9.90
2012,06,24,07,28,10.00
2012,06,24,07,29,10.10
2012,06,24,07,30,10.10
2012,06,24,07,31,10.10
2012,06,24,07,32,10.10
2012,06,24,07,33,10.10
2012,06,24,07,34,10.10
2012,06,24,07,35,10.10
2012,06,24,07,36,10.20
2012,06,24,07,37,10.20
2012,06,24,07,38,10.30
2012,06,24,07,39,10.30
2012,06,24,07,40,10.40
2012,06,24,07,41,10.40
2012,06,24,07,42,10.40
2012,06,24,07,43,10.40
2012,06,24,07,44,10.50
2012,06,24,07,45,10.60
2012,06,24,07,46,10.60
2012,06,24,07,47,10.60
2012,06,24,07,48,10.60
2012,06,24,07,49,10.60
2012,06,24,07,50,10.70
2012,06,24,07,51,10.70
2012,06,24,07,52,10.70
2012,06,24,07,53,10.70
2012,06,24,07,54,10.70
2012,06,24,07,55,10.70
2012,06,24,07,56,10.70
2012,06,24,07,57,10.70
2012,06,24,07,58,10.70
2012,06,24,07,59,10.70
2012,06,24,08,00,10.70
2012,06,24,08,01,10.70
2012,06,24,08,02,10.70
2012,06,24,08,03,10.60
2012,06,24,08,04,10.60
2012,06,24,08,05,10.60
2012,06,24,08,06,10.60
2012,06,24,08,07,10.60
2012,06,24,08,08,10.60
2012,06,24,08,09,10.60
2012,06,24,08,10,10.60
2012,06,24,08,11,10.60
2012,06,24,08,12,10.60
2012,06,24,08,13,10.70
2012,06,24,08,14,10.70
2012,06,24,08,15,10.80
2012,06,24,08,16,10.80
2012,06,24,08,17,10.90
2012,06,24,08,18,10.90
2012,06,24,08,19,10.90
2012,06,24,08,20,10.90
2012,06,24,08,21,11.00
2012,06,24,08,22,11.10
2012,06,24,08,23,11.10
2012,06,24,08,24,11.10
2012,06,24,08,25,11.10
2012,06,24,08,26,11.10
2012,06,24,08,27,11.10
2012,06,24,08,28,11.20
2012,06,24,08,29,11.20
2012,06,24,08,30,11.20
2012,06,24,08,31,11.30
2012,06,24,08,32,11.30
2012,06,24,08,33,11.40
2012,06,24,08,34,11.40
2012,06,24,08,35,11.40
2012,06,24,08,36,11.40
2012,06,24,08,37,11.40
2012,06,24,08,38,11.40
2012,06,24,08,39,11.40
2012,06,24,08,40,11.40
2012,06,24,08,41,11.40
2012,06,24,08,42,11.40
2012,06,24,08,43,11.60
2012,06,24,08,44,11.60
2012,06,24,08,45,11.60
2012,06,24,08,46,11.70
2012,06,24,08,47,11.80
2012,06,24,08,48,11.80
2012,06,24,08,49,11.80
2012,06,24,08,50,11.80
2012,06,24,08,51,11.80
2012,06,24,08,52,11.80
2012,06,24,08,53,11.90
2012,06,24,08,54,11.90
2012,06,24,08,55,11.90
2012,06,24,08,56,11.90
2012,06,24,08,57,12.00
2012,06,24,08,58,12.00
2012,06,24,08,59,12.10
2012,06,24,09,00,12.20
2012,06,24,09,01,12.20
2012,06,24,09,02,12.20
2012,06,24,09,03,12.20
2012,06,24,09,04,12.20
2012,06,24,09,05,12.30
2012,06,24,09,06,12.30
2012,06,24,09,07,12.30
2012,06,24,09,08,12.30
2012,06,24,09,09,12.40
2012,06,24,09,10,12.50
2012,06,24,09,11,12.60
2012,06,24,09,12,12.70
2012,06,24,09,13,12.70
2012,06,24,09,14,12.80
2012,06,24,09,15,12.80
2012,06,24,09,16,12.90
2012,06,24,09,17,13.00
2012,06,24,09,18,13.00
2012,06,24,09,19,13.10
2012,06,24,09,20,13.10
2012,06,24,09,21,13.20
2012,06,24,09,22,13.20
2012,06,24,09,23,13.20
2012,06,24,09,24,13.20
2012,06,24,09,25,13.20
2012,06,24,09,26,13.30
2012,06,24,09,27,13.30
2012,06,24,09,28,13.30
2012,06,24,09,29,13.30
2012,06,24,09,30,13.40
2012,06,24,09,31,13.40
2012,06,24,09,32,13.40
2012,06,24,09,33,13.40
2012,06,24,09,34,13.50
2012,06,24,09,35,13.50
2012,06,24,09,36,13.60
2012,06,24,09,37,13.60
2012,06,24,09,38,13.80
2012,06,24,09,39,13.90
2012,06,24,09,40,14.00
2012,06,24,09,41,14.00
2012,06,24,09,42,14.10
2012,06,24,09,43,14.00
2012,06,24,09,44,14.00
2012,06,24,09,45,14.10
2012,06,24,09,46,14.20
2012,06,24,09,47,14.20
2012,06,24,09,48,14.20
2012,06,24,09,49,14.10
2012,06,24,09,50,14.10
2012,06,24,09,51,14.00
2012,06,24,09,52,14.00
2012,06,24,09,53,14.00
2012,06,24,09,54,14.00
2012,06,24,09,55,14.00
2012,06,24,09,56,14.10
2012,06,24,09,57,14.10
2012,06,24,09,58,14.10
2012,06,24,09,59,14.00
2012,06,24,10,00,14.00
2012,06,24,10,01,14.00
2012,06,24,10,02,14.00
2012,06,24,10,03,14.00
2012,06,24,10,04,14.10
2012,06,24,10,05,14.20
2012,06,24,10,06,14.40
2012,06,24,10,07,14.50
2012,06,24,10,08,14.60
2012,06,24,10,09,14.70
2012,06,24,10,10,14.80
2012,06,24,10,11,14.80
2012,06,24,10,12,14.90
2012,06,24,10,13,15.00
2012,06,24,10,14,15.10
2012,06,24,10,15,15.20
2012,06,24,10,16,15.30
2012,06,24,10,17,15.30
2012,06,24,10,18,15.50
2012,06,24,10,19,15.50
2012,06,24,10,20,15.60
2012,06,24,10,21,15.70
2012,06,24,10,22,15.80
2012,06,24,10,23,15.80
2012,06,24,10,24,15.90
2012,06,24,10,25,15.90
2012,06,24,10,26,15.90
2012,06,24,10,27,15.80
2012,06,24,10,28,15.80
2012,06,24,10,29,15.70
2012,06,24,10,30,15.60
2012,06,24,10,31,15.60
2012,06,24,10,32,15.70
2012,06,24,10,33,15.80
2012,06,24,10,34,15.90
2012,06,24,10,35,15.80
2012,06,24,10,36,15.70
2012,06,24,10,37,15.70
2012,06,24,10,38,15.60
2012,06,24,10,39,15.50
2012,06,24,10,40,15.50
2012,06,24,10,41,15.50
2012,06,24,10,42,15.70
2012,06,24,10,43,15.80
2012,06,24,10,44,15.70
2012,06,24,10,45,15.70
2012,06,24,10,46,15.60
2012,06,24,10,47,15.60
2012,06,24,10,48,15.60
2012,06,24,10,49,15.70
2012,06,24,10,50,15.80
2012,06,24,10,51,15.90
2012,06,24,10,52,16.00
2012,06,24,10,53,16.10
2012,06,24,10,54,16.30
2012,06,24,10,55,16.30
2012,06,24,10,56,16.30
2012,06,24,10,57,16.30
2012,06,24,10,58,16.40
2012,06,24,10,59,16.40
2012,06,24,11,00,16.40
2012,06,24,11,01,16.50
2012,06,24,11,02,16.70
2012,06,24,11,03,16.70
2012,06,24,11,04,16.70
2012,06,24,11,05,16.70
2012,06,24,11,06,16.60
2012,06,24,11,07,16.60
2012,06,24,11,08,16.60
2012,06,24,11,09,16.50
2012,06,24,11,10,16.40
2012,06,24,11,11,16.40
2012,06,24,11,12,16.50
2012,06,24,11,13,16.40
2012,06,24,11,14,16.20
2012,06,24,11,15,16.20
2012,06,24,11,16,16.30
2012,06,24,11,17,16.30
2012,06,24,11,18,16.40
2012,06,24,11,19,16.60
2012,06,24,11,20,16.60
2012,06,24,11,21,16.40
2012,06,24,11,22,16.30
2012,06,24,11,23,16.30
2012,06,24,11,24,16.30
2012,06,24,11,25,16.40
2012,06,24,11,26,16.40
2012,06,24,11,27,16.40
2012,06,24,11,28,16.20
2012,06,24,11,29,16.10
2012,06,24,11,30,16.10
2012,06,24,11,31,16.10
2012,06,24,11,32,16.10
2012,06,24,11,33,16.10
2012,06,24,11,34,16.10
2012,06,24,11,35,16.00
2012,06,24,11,36,15.80
2012,06,24,11,37,15.70
2012,06,24,11,38,15.50
2012,06,24,11,39,15.40
2012,06,24,11,40,15.30
2012,06,24,11,41,15.20
2012,06,24,11,42,15.10
2012,06,24,11,43,15.10
2012,06,24,11,44,15.30
2012,06,24,11,45,15.40
2012,06,24,11,46,15.60
2012,06,24,11,47,15.70
2012,06,24,11,48,15.60
2012,06,24,11,49,15.40
2012,06,24,11,50,15.30
2012,06,24,11,51,15.20
2012,06,24,11,52,15.00
2012,06,24,11,53,14.90
2012,06,24,11,54,14.90
2012,06,24,11,55,14.90
2012,06,24,11,56,14.80
2012,06,24,11,57,14.80
2012,06,24,11,58,14.90
2012,06,24,11,59,15.10
2012,06,24,12,00,15.20
2012,06,24,12,01,15.00
2012,06,24,12,02,14.90
2012,06,24,12,03,14.80
2012,06,24,12,04,14.90
2012,06,24,12,05,14.90
2012,06,24,12,06,14.90
2012,06,24,12,07,14.90
2012,06,24,12,08,14.80
2012,06,24,12,09,14.70
2012,06,24,12,10,14.60
2012,06,24,12,11,14.60
2012,06,24,12,12,14.60
2012,06,24,12,13,14.60
2012,06,24,12,14,14.70
2012,06,24,12,15,14.70
2012,06,24,12,16,14.50
2012,06,24,12,17,14.40
2012,06,24,12,18,14.40
2012,06,24,12,19,14.50
2012,06,24,12,20,14.60
2012,06,24,12,21,14.80
2012,06,24,12,22,14.80
2012,06,24,12,23,14.80
2012,06,24,12,24,14.90
2012,06,24,12,25,15.10
2012,06,24,12,26,15.30
2012,06,24,12,27,15.30
2012,06,24,12,28,15.30
2012,06,24,12,29,15.30
2012,06,24,12,30,15.30
2012,06,24,12,31,15.30
2012,06,24,12,32,15.30
2012,06,24,12,33,15.30
2012,06,24,12,34,15.50
2012,06,24,12,35,15.60
2012,06,24,12,36,15.80
2012,06,24,12,37,15.80
2012,06,24,12,38,15.90
2012,06,24,12,39,16.00
2012,06,24,12,40,16.10
2012,06,24,12,41,16.10
2012,06,24,12,42,16.10
2012,06,24,12,43,16.10
2012,06,24,12,44,16.00
2012,06,24,12,45,16.00
2012,06,24,12,46,16.10
2012,06,24,12,47,16.10
2012,06,24,12,48,16.20
2012,06,24,12,49,16.30
2012,06,24,12,50,16.30
2012,06,24,12,51,16.20
2012,06,24,12,52,16.10
2012,06,24,12,53,16.20
2012,06,24,12,54,16.30
2012,06,24,12,55,16.20
2012,06,24,12,56,16.30
2012,06,24,12,57,16.20
2012,06,24,12,58,16.10
2012,06,24,12,59,15.90
2012,06,24,13,00,16.00
2012,06,24,13,01,16.00
2012,06,24,13,02,16.10
2012,06,24,13,03,16.10
2012,06,24,13,04,16.00
2012,06,24,13,05,15.90
2012,06,24,13,06,15.90
2012,06,24,13,07,16.00
2012,06,24,13,08,16.10
2012,06,24,13,09,16.20
2012,06,24,13,10,16.20
2012,06,24,13,11,16.10
2012,06,24,13,12,16.00
2012,06,24,13,13,15.80
2012,06,24,13,14,15.80
2012,06,24,13,15,15.80
2012,06,24,13,16,15.80
2012,06,24,13,17,15.90
2012,06,24,13,18,16.00
2012,06,24,13,19,16.10
2012,06,24,13,20,16.10
2012,06,24,13,21,16.10
2012,06,24,13,22,16.10
2012,06,24,13,23,15.90
2012,06,24,13,24,15.80
2012,06,24,13,25,15.70
2012,06,24,13,26,15.40
2012,06,24,13,27,15.20
2012,06,24,13,28,15.30
2012,06,24,13,29,15.30
2012,06,24,13,30,15.50
2012,06,24,13,31,15.60
2012,06,24,13,32,15.70
2012,06,24,13,33,15.90
2012,06,24,13,34,16.10
2012,06,24,13,35,16.30
2012,06,24,13,36,16.40
2012,06,24,13,37,16.40
2012,06,24,13,38,16.50
2012,06,24,13,39,16.50
2012,06,24,13,40,16.40
2012,06,24,13,41,16.30
2012,06,24,13,42,16.40
2012,06,24,13,43,16.40
2012,06,24,13,44,16.40
2012,06,24,13,45,16.50
2012,06,24,13,46,16.50
2012,06,24,13,47,16.40
2012,06,24,13,48,16.40
2012,06,24,13,49,16.30
2012,06,24,13,50,16.40
2012,06,24,13,51,16.40
2012,06,24,13,52,16.40
2012,06,24,13,53,16.40
2012,06,24,13,54,16.30
2012,06,24,13,55,16.40
2012,06,24,13,56,16.40
2012,06,24,13,57,16.40
2012,06,24,13,58,16.20
2012,06,24,13,59,16.10
2012,06,24,14,00,16.20
2012,06,24,14,01,16.20
2012,06,24,14,02,16.20
2012,06,24,14,03,16.30
2012,06,24,14,04,16.40
2012,06,24,14,05,16.50
2012,06,24,14,06,16.70
2012,06,24,14,07,16.60
2012,06,24,14,08,16.50
2012,06,24,14,09,16.40
2012,06,24,14,10,16.40
2012,06,24,14,11,16.50
2012,06,24,14,12,16.60
2012,06,24,14,13,16.60
2012,06,24,14,14,16.40
2012,06,24,14,15,16.20
2012,06,24,14,16,16.10
2012,06,24,14,17,16.10
2012,06,24,14,18,16.20
2012,06,24,14,19,16.30
2012,06,24,14,20,16.50
2012,06,24,14,21,16.60
2012,06,24,14,22,16.50
2012,06,24,14,23,16.40
2012,06,24,14,24,16.20
2012,06,24,14,25,16.10
2012,06,24,14,26,16.00
2012,06,24,14,27,16.10
2012,06,24,14,28,16.10
2012,06,24,14,29,16.40
2012,06,24,14,30,16.40
2012,06,24,14,31,16.20
2012,06,24,14,32,16.30
2012,06,24,14,33,16.50
2012,06,24,14,34,16.60
2012,06,24,14,35,16.50
2012,06,24,14,36,16.40
2012,06,24,14,37,16.40
2012,06,24,14,38,16.60
2012,06,24,14,39,16.70
2012,06,24,14,40,16.90
2012,06,24,14,41,17.10
2012,06,24,14,42,17.20
2012,06,24,14,43,17.20
2012,06,24,14,44,17.10
2012,06,24,14,45,17.00
2012,06,24,14,46,16.70
2012,06,24,14,47,16.50
2012,06,24,14,48,16.40
2012,06,24,14,49,16.40
2012,06,24,14,50,16.30
2012,06,24,14,51,16.20
2012,06,24,14,52,16.30
2012,06,24,14,53,16.50
2012,06,24,14,54,16.70
2012,06,24,14,55,16.70
2012,06,24,14,56,16.60
2012,06,24,14,57,16.70
2012,06,24,14,58,16.70
2012,06,24,14,59,16.70
2012,06,24,15,00,16.70
2012,06,24,15,01,16.80
2012,06,24,15,02,16.80
2012,06,24,15,03,16.80
2012,06,24,15,04,16.90
2012,06,24,15,05,16.90
2012,06,24,15,06,16.70
2012,06,24,15,07,16.70
2012,06,24,15,08,16.70
2012,06,24,15,09,16.60
2012,06,24,15,10,16.60
2012,06,24,15,11,16.50
2012,06,24,15,12,16.70
2012,06,24,15,13,16.70
2012,06,24,15,14,16.80
2012,06,24,15,15,16.80
2012,06,24,15,16,16.90
2012,06,24,15,17,16.80
2012,06,24,15,18,16.70
2012,06,24,15,19,16.80
2012,06,24,15,20,16.90
2012,06,24,15,21,17.00
2012,06,24,15,22,17.00
2012,06,24,15,23,17.00
2012,06,24,15,24,17.00
2012,06,24,15,25,17.00
2012,06,24,15,26,17.10
2012,06,24,15,27,17.10
2012,06,24,15,28,17.10
2012,06,24,15,29,17.10
2012,06,24,15,30,17.20
2012,06,24,15,31,16.90
2012,06,24,15,32,16.70
2012,06,24,15,33,16.70
2012,06,24,15,34,16.70
2012,06,24,15,35,16.60
2012,06,24,15,36,16.50
2012,06,24,15,37,16.40
2012,06,24,15,38,16.60
2012,06,24,15,39,16.80
2012,06,24,15,40,16.90
2012,06,24,15,41,17.00
2012,06,24,15,42,17.00
2012,06,24,15,43,17.00
2012,06,24,15,44,16.90
2012,06,24,15,45,16.80
2012,06,24,15,46,16.70
2012,06,24,15,47,16.70
2012,06,24,15,48,16.70
2012,06,24,15,49,16.70
2012,06,24,15,50,16.70
2012,06,24,15,51,16.80
2012,06,24,15,52,16.90
2012,06,24,15,53,17.10
2012,06,24,15,54,17.00
2012,06,24,15,55,16.90
2012,06,24,15,56,16.80
2012,06,24,15,57,16.90
2012,06,24,15,58,17.00
2012,06,24,15,59,16.90
2012,06,24,16,00,16.90
2012,06,24,16,01,16.80
2012,06,24,16,02,16.70
2012,06,24,16,03,16.70
2012,06,24,16,04,16.70
2012,06,24,16,05,16.70
2012,06,24,16,06,16.70
2012,06,24,16,07,16.70
2012,06,24,16,08,16.80
2012,06,24,16,09,16.80
2012,06,24,16,10,16.90
2012,06,24,16,11,17.00
2012,06,24,16,12,16.90
2012,06,24,16,13,17.00
2012,06,24,16,14,17.10
2012,06,24,16,15,17.20
2012,06,24,16,16,17.10
2012,06,24,16,17,17.20
2012,06,24,16,18,17.30
2012,06,24,16,19,17.30
2012,06,24,16,20,17.30
2012,06,24,16,21,17.20
2012,06,24,16,22,17.30
2012,06,24,16,23,17.40
2012,06,24,16,24,17.50
2012,06,24,16,25,17.50
2012,06,24,16,26,17.50
2012,06,24,16,27,17.60
2012,06,24,16,28,17.60
2012,06,24,16,29,17.70
2012,06,24,16,30,17.80
2012,06,24,16,31,17.80
2012,06,24,16,32,17.70
2012,06,24,16,33,17.80
2012,06,24,16,34,17.80
2012,06,24,16,35,17.80
2012,06,24,16,36,17.90
2012,06,24,16,37,17.90
2012,06,24,16,38,17.80
2012,06,24,16,39,17.70
2012,06,24,16,40,17.60
2012,06,24,16,41,17.50
2012,06,24,16,42,17.40
2012,06,24,16,43,17.30
2012,06,24,16,44,17.30
2012,06,24,16,45,17.20
2012,06,24,16,46,17.10
2012,06,24,16,47,17.10
2012,06,24,16,48,17.10
2012,06,24,16,49,17.30
2012,06,24,16,50,17.30
2012,06,24,16,51,17.30
2012,06,24,16,52,17.40
2012,06,24,16,53,17.40
2012,06,24,16,54,17.30
2012,06,24,16,55,17.30
2012,06,24,16,56,17.30
2012,06,24,16,57,17.40
2012,06,24,16,58,17.40
2012,06,24,16,59,17.50
2012,06,24,17,00,17.50
2012,06,24,17,01,17.40
2012,06,24,17,02,17.30
2012,06,24,17,03,17.30
2012,06,24,17,04,17.30
2012,06,24,17,05,17.20
2012,06,24,17,06,17.20
2012,06,24,17,07,17.20
2012,06,24,17,08,17.10
2012,06,24,17,09,17.10
2012,06,24,17,10,17.10
2012,06,24,17,11,17.30
2012,06,24,17,12,17.30
2012,06,24,17,13,17.30
2012,06,24,17,14,17.30
2012,06,24,17,15,17.30
2012,06,24,17,16,17.30
2012,06,24,17,17,17.30
2012,06,24,17,18,17.10
2012,06,24,17,19,17.20
2012,06,24,17,20,17.20
2012,06,24,17,21,17.30
2012,06,24,17,22,17.20
2012,06,24,17,23,17.20
2012,06,24,17,24,17.20
2012,06,24,17,25,17.30
2012,06,24,17,26,17.30
2012,06,24,17,27,17.30
2012,06,24,17,28,17.30
2012,06,24,17,29,17.30
2012,06,24,17,30,17.30
2012,06,24,17,31,17.30
2012,06,24,17,32,17.30
2012,06,24,17,33,17.30
2012,06,24,17,34,17.20
2012,06,24,17,35,17.30
2012,06,24,17,36,17.30
2012,06,24,17,37,17.30
2012,06,24,17,38,17.30